{"data":{"norad_id":63378,"intl_designator":"2025-063R","name":"STARLINK-33640","alt_names":[],"object_type":"PAYLOAD","status":"ACTIVE","operator":null,"country":"US","launch_date":"2025-03-26","launch_site_code":"AFWTR","launch_vehicle":null,"mission":null,"orbit_class":"UNKNOWN","rcs_meters":null,"size_class":null,"mass_kg":null,"dimensions":null,"purposes":["comms"],"wikipedia_slug":null,"has_3d_model":false,"image_url":null,"decayed_at":null,"tle_current":{"epoch":"2026-05-25T04:32:58.009920Z","epoch_age_seconds":48934,"freshness":"FRESH","line1":"1 63378U 25063R   26145.18956030  .00018992  00000+0  65134-3 0  9993","line2":"2 63378  53.1576  57.0020 0000891 114.1406 245.9688 15.30218197 66477","mean_motion":15.30218197,"eccentricity":8.91e-5,"inclination_deg":53.1576,"raan_deg":57.002,"arg_perigee_deg":114.1406,"mean_anomaly_deg":245.9688,"bstar":0.00065134,"rev_number":6647,"period_min":94.104226627492,"perigee_km":474.55010816742,"apogee_km":475.77136582415,"semimajor_km":6853.2977369958,"source":"CELESTRAK","updated_at":"2026-05-25T13:38:19.964906Z"}}}